Boise, ID

3:58 AM MDT on April 25, 2018 (GMT -0600)
Boise Air Term

Weather History for KBOI - October, 2012

Change the Weather History Date:

Thursday, October 11, 2012

  Actual Average Record
Temperature  
Mean Temperature 61 °F 55 °F  
Max Temperature 76 °F 68 °F 87 °F (1950)
Min Temperature 45 °F 42 °F 22 °F (1990)
Degree Days  
Heating Degree Days 4 10  
Month to date heating degree days 102 95  
Since 1 July heating degree days 119 216  
Cooling Degree Days 0 0  
Month to date cooling degree days 1 7  
Year to date cooling degree days 1274 941  
Growing Degree Days 10 (Base 50)    
Moisture  
Dew Point 29 °F    
Average Humidity 34    
Maximum Humidity 49    
Minimum Humidity 18    
Precipitation  
Precipitation 0.00 in 0.02 in 0.59 in (2001)
Month to date precipitation 0.00 0.23  
Year to date precipitation 8.91 8.31  
Snow  
Snow 0.00 in 0.00 in 0.00 in (2006)
Month to date snowfall 0.0 0.0  
Since 1 July snowfall 0.0 0.0  
Snow Depth 0.00 in    
Sea Level Pressure  
Sea Level Pressure 29.87 in    
Wind  
Wind Speed 4 mph (ESE)    
Max Wind Speed 10 mph    
Max Gust Speed 13 mph    
Visibility 9 miles    
Events      
T = Trace of Precipitation, MM = Missing Value Source: NWS Daily Summary

Daily Weather History Graph

Daily Weather History Graph

Search for Another Location

Airport or City:

Astronomy

Oct. 11, 2012 Rise Set
Actual Time 7:54 AM MDT 7:07 PM MDT
Civil Twilight 7:26 AM MDT 7:36 PM MDT
Nautical Twilight 6:52 AM MDT 8:09 PM MDT
Astronomical Twilight 6:19 AM MDT 8:42 PM MDT
Moon 3:30 AM MDT (10/11) 4:52 PM MDT (10/11)
Length of Visible Light 12h 09m
Length of Day
11h 12m
Waning Crescent, 18% of the Moon is Illuminated
Oct 11
Waning Crescent
Oct 15
New
Oct 21
First Quarter
Oct 29
Full
Nov 6
Last Quarter

Hourly Weather History & Observations

Time (MDT) Temp. Windchill Dew Point Humidity Pressure Visibility Wind Dir Wind Speed Gust Speed Precip Events Conditions
12:53 AM 52.0 °F - 28.9 °F 41% 29.86 in 10.0 mi SE 6.9 mph - N/A   Clear
1:53 AM 50.0 °F - 28.0 °F 43% 29.86 in 10.0 mi SE 4.6 mph - N/A   Clear
2:53 AM 51.1 °F - 28.0 °F 41% 29.86 in 10.0 mi ESE 8.1 mph - N/A   Clear
3:53 AM 50.0 °F - 27.0 °F 41% 29.87 in 10.0 mi ESE 5.8 mph - N/A   Clear
4:53 AM 48.9 °F - 27.0 °F 43% 29.88 in 10.0 mi South 4.6 mph - N/A   Clear
5:53 AM 48.0 °F - 27.0 °F 44% 29.90 in 10.0 mi SE 4.6 mph - N/A   Clear
6:53 AM 46.0 °F 43.9 °F 27.0 °F 47% 29.90 in 10.0 mi SE 4.6 mph - N/A   Clear
7:53 AM 45.0 °F 42.6 °F 27.0 °F 49% 29.92 in 10.0 mi SE 4.6 mph - N/A   Clear
8:53 AM 48.0 °F - 27.0 °F 44% 29.95 in 10.0 mi SE 5.8 mph - N/A   Clear
9:53 AM 57.0 °F - 28.0 °F 33% 29.95 in 10.0 mi Calm Calm - N/A   Clear
10:53 AM 62.1 °F - 28.0 °F 28% 29.95 in 10.0 mi SE 8.1 mph - N/A   Clear
11:53 AM 66.0 °F - 27.0 °F 23% 29.93 in 10.0 mi Variable 3.5 mph - N/A   Clear
12:53 PM 69.1 °F - 28.0 °F 22% 29.91 in 7.0 mi Calm Calm - N/A   Clear
1:53 PM 71.1 °F - 28.9 °F 21% 29.89 in 10.0 mi NW 5.8 mph - N/A   Clear
2:53 PM 73.9 °F - 28.9 °F 19% 29.86 in 7.0 mi North 6.9 mph - N/A   Clear
3:53 PM 73.4 °F - 28.4 °F 19% 29.89 in 6.0 mi Calm Calm - N/A   Haze
4:53 PM 75.2 °F - 28.4 °F 18% 29.87 in 7.0 mi NNW 3.5 mph - N/A   Clear
5:53 PM 73.9 °F - 30.0 °F 20% 29.81 in 5.0 mi NNW 6.9 mph - N/A   Haze
6:53 PM 69.8 °F - 33.8 °F 27% 29.84 in 10.0 mi WNW 3.5 mph - N/A   Clear
7:53 PM 64.9 °F - 35.1 °F 33% 29.81 in 10.0 mi NNW 3.5 mph - N/A   Clear
8:53 PM 59.0 °F - 34.0 °F 39% 29.83 in 10.0 mi Calm Calm - N/A   Clear
9:53 PM 55.4 °F - 33.8 °F 44% 29.85 in 10.0 mi SE 4.6 mph - N/A   Clear
10:53 PM 55.9 °F - 32.0 °F 40% 29.82 in 10.0 mi Calm Calm - N/A   Clear
11:53 PM 53.1 °F - 28.9 °F 40% 29.81 in 10.0 mi SE 6.9 mph - N/A   Clear